| time (UTC) | temp F | wind direction | speed MPH | gust MPH | rain 1hr in | rain 24hr in | rain mn in | humidity % | barometer mb |
| 20260503181001 | 72 | 0.0 | 0.0 | 0.00 | 0.00 | 0.00 | 24 | 1015.2 | |
| 20260503180501 | 73 | 0.0 | 0.0 | 0.00 | 0.00 | 0.00 | 23 | 1015.2 | |
| 20260503180001 | 73 | 0.0 | 0.0 | 0.00 | 0.00 | 0.00 | 23 | 1015.1 | |
| 20260503175501 | 74 | 0.0 | 0.0 | 0.00 | 0.00 | 0.00 | 22 | 1015.1 | |
| 20260503175001 | 74 | 0.0 | 0.0 | 0.00 | 0.00 | 0.00 | 21 | 1015.2 | |
| 20260503174501 | 75 | 0.0 | 0.0 | 0.00 | 0.00 | 0.00 | 20 | 1015.1 | |
| 20260503174001 | 76 | 0.0 | 0.0 | 0.00 | 0.00 | 0.00 | 19 | 1015.1 | |
| 20260503173501 | 76 | 0.0 | 0.0 | 0.00 | 0.00 | 0.00 | 19 | 1015.0 | |
| 20260503173002 | 76 | 0.0 | 0.0 | 0.00 | 0.00 | 0.00 | 18 | 1015.0 | |
| 20260503172502 | 76 | 0.0 | 0.0 | 0.00 | 0.00 | 0.00 | 18 | 1015.0 | |
| 20260503172001 | 77 | 0.0 | 0.0 | 0.00 | 0.00 | 0.00 | 18 | 1014.9 | |
| 20260503171502 | 78 | 0.0 | 0.0 | 0.00 | 0.00 | 0.00 | 17 | 1014.8 | |
| 20260503171001 | 79 | 0.0 | 0.0 | 0.00 | 0.00 | 0.00 | 16 | 1014.8 | |
| 20260503170501 | 79 | 0.0 | 0.0 | 0.00 | 0.00 | 0.00 | 15 | 1014.8 | |
| 20260503151001 | 84 | 0.0 | 0.0 | 0.00 | 0.00 | 0.00 | 12 | 1015.0 | |
| 20260503150501 | 84 | 0.0 | 0.0 | 0.00 | 0.00 | 0.00 | 12 | 1015.1 | |
| 20260503131001 | 80 | 0.0 | 0.0 | 0.00 | 0.00 | 0.00 | 14 | 1016.3 | |
| 20260503130501 | 80 | 0.0 | 0.0 | 0.00 | 0.00 | 0.00 | 15 | 1016.4 | |
| 20260503110501 | 79 | 0.0 | 0.0 | 0.00 | 0.00 | 0.00 | 17 | 1017.7 | |
| 20260503072501 | 68 | 0.0 | 0.0 | 0.00 | 0.00 | 0.00 | 27 | 1019.0 | |
| 20260503072001 | 68 | 0.0 | 0.0 | 0.00 | 0.00 | 0.00 | 28 | 1019.0 | |
| 20260503071501 | 68 | 0.0 | 0.0 | 0.00 | 0.00 | 0.00 | 28 | 1019.1 | |
| 20260503071001 | 67 | 0.0 | 0.0 | 0.00 | 0.00 | 0.00 | 27 | 1019.1 | |
| 20260503070501 | 67 | 0.0 | 0.0 | 0.00 | 0.00 | 0.00 | 29 | 1019.1 | |
| 20260503054501 | 61 | 0.0 | 0.0 | 0.00 | 0.00 | 0.00 | 35 | 1018.9 | |
| 20260503054001 | 61 | 0.0 | 0.0 | 0.00 | 0.00 | 0.00 | 36 | 1018.9 | |
| 20260503053501 | 60 | 0.0 | 0.0 | 0.00 | 0.00 | 0.00 | 37 | 1019.0 | |
| 20260503053001 | 61 | 0.0 | 0.0 | 0.00 | 0.00 | 0.00 | 37 | 1018.9 | |
| 20260503052501 | 60 | 0.0 | 0.0 | 0.00 | 0.00 | 0.00 | 38 | 1018.9 | |
| 20260503052001 | 60 | 0.0 | 0.0 | 0.00 | 0.00 | 0.00 | 39 | 1019.0 | |
| 20260503051501 | 60 | 0.0 | 0.0 | 0.00 | 0.00 | 0.00 | 39 | 1019.0 | |
| 20260503051001 | 60 | 0.0 | 0.0 | 0.00 | 0.00 | 0.00 | 39 | 1019.0 | |
| 20260503050501 | 59 | 0.0 | 0.0 | 0.00 | 0.00 | 0.00 | 40 | 1018.9 | |
| 20260503050001 | 59 | 0.0 | 0.0 | 0.00 | 0.00 | 0.00 | 40 | 1018.9 | |
| 20260503045501 | 59 | 0.0 | 0.0 | 0.00 | 0.00 | 0.00 | 40 | 1018.9 | |
| 20260503045001 | 59 | 0.0 | 0.0 | 0.00 | 0.00 | 0.00 | 40 | 1018.9 | |
| 20260503044501 | 59 | 0.0 | 0.0 | 0.00 | 0.00 | 0.00 | 41 | 1018.9 | |
| 20260503044001 | 58 | 0.0 | 0.0 | 0.00 | 0.00 | 0.00 | 42 | 1018.8 | |
| 20260503043501 | 58 | 0.0 | 0.0 | 0.00 | 0.00 | 0.00 | 42 | 1018.9 | |
| 20260503043001 | 57 | 0.0 | 0.0 | 0.00 | 0.00 | 0.00 | 43 | 1018.8 | |
| 20260503042501 | 56 | 0.0 | 0.0 | 0.00 | 0.00 | 0.00 | 44 | 1018.7 | |
| 20260503042001 | 55 | 0.0 | 0.0 | 0.00 | 0.00 | 0.00 | 44 | 1018.9 | |
| 20260503041501 | 55 | 0.0 | 0.0 | 0.00 | 0.00 | 0.00 | 44 | 1018.8 | |
| 20260503041001 | 54 | 0.0 | 0.0 | 0.00 | 0.00 | 0.00 | 43 | 1018.7 | |
| 20260503040501 | 54 | 0.0 | 0.0 | 0.00 | 0.00 | 0.00 | 43 | 1018.6 | |
| 20260503040001 | 54 | 0.0 | 0.0 | 0.00 | 0.00 | 0.00 | 42 | 1018.5 | |
| 20260503035501 | 54 | 0.0 | 0.0 | 0.00 | 0.00 | 0.00 | 42 | 1018.6 | |
| 20260503035001 | 54 | 0.0 | 0.0 | 0.00 | 0.00 | 0.00 | 42 | 1018.5 | |
| 20260503034501 | 54 | 0.0 | 0.0 | 0.00 | 0.00 | 0.00 | 41 | 1018.5 | |
| 20260503034001 | 54 | 0.0 | 0.0 | 0.00 | 0.00 | 0.00 | 42 | 1018.5 | |
| 20260503033501 | 54 | 0.0 | 0.0 | 0.00 | 0.00 | 0.00 | 42 | 1018.4 | |
| 20260503033001 | 54 | 0.0 | 0.0 | 0.00 | 0.00 | 0.00 | 41 | 1018.3 | |
| 20260503032501 | 54 | 0.0 | 0.0 | 0.00 | 0.00 | 0.00 | 41 | 1018.3 | |
| 20260503032001 | 54 | 0.0 | 0.0 | 0.00 | 0.00 | 0.00 | 42 | 1018.2 | |
| 20260503031501 | 55 | 0.0 | 0.0 | 0.00 | 0.00 | 0.00 | 43 | 1018.3 | |
| 20260503031001 | 54 | 0.0 | 0.0 | 0.00 | 0.00 | 0.00 | 46 | 1018.2 | |
| 20260503030501 | 54 | 0.0 | 0.0 | 0.00 | 0.00 | 0.00 | 45 | 1018.2 | |
| 20260503030001 | 54 | 0.0 | 0.0 | 0.00 | 0.00 | 0.00 | 46 | 1018.1 | |
| 20260503025500 | 54 | 0.0 | 0.0 | 0.00 | 0.00 | 0.00 | 45 | 1018.1 | |
| 20260503025001 | 56 | 0.0 | 0.0 | 0.00 | 0.00 | 0.00 | 43 | 1018.0 | |
| 20260503024501 | 55 | 0.0 | 0.0 | 0.00 | 0.00 | 0.00 | 44 | 1017.9 | |
| 20260503024001 | 56 | 0.0 | 0.0 | 0.00 | 0.00 | 0.00 | 43 | 1018.0 | |
| 20260503023501 | 55 | 0.0 | 0.0 | 0.00 | 0.00 | 0.00 | 43 | 1017.9 | |
| 20260503023001 | 56 | 0.0 | 0.0 | 0.00 | 0.00 | 0.00 | 42 | 1018.0 | |
| 20260503022501 | 55 | 0.0 | 0.0 | 0.00 | 0.00 | 0.00 | 44 | 1017.9 | |
| 20260503022001 | 56 | 0.0 | 0.0 | 0.00 | 0.00 | 0.00 | 39 | 1017.6 | |
| 20260503021501 | 55 | 0.0 | 0.0 | 0.00 | 0.00 | 0.00 | 42 | 1017.6 | |
| 20260503021000 | 55 | 0.0 | 0.0 | 0.00 | 0.00 | 0.00 | 42 | 1017.5 | |
| 20260503020501 | 55 | 0.0 | 0.0 | 0.00 | 0.00 | 0.00 | 43 | 1017.7 | |
| 20260503020000 | 55 | 0.0 | 0.0 | 0.00 | 0.00 | 0.00 | 42 | 1017.6 | |
| 20260503015501 | 55 | 0.0 | 0.0 | 0.00 | 0.00 | 0.00 | 43 | 1017.5 | |
| 20260503015000 | 55 | 0.0 | 0.0 | 0.00 | 0.00 | 0.00 | 43 | 1017.5 | |
| 20260503014501 | 55 | 0.0 | 0.0 | 0.00 | 0.00 | 0.00 | 42 | 1017.6 | |
| 20260503014001 | 55 | 0.0 | 0.0 | 0.00 | 0.00 | 0.00 | 43 | 1017.6 | |
| 20260503013501 | 55 | 0.0 | 0.0 | 0.00 | 0.00 | 0.00 | 43 | 1017.7 | |
| 20260503013000 | 56 | 0.0 | 0.0 | 0.00 | 0.00 | 0.00 | 41 | 1017.6 | |
| 20260503012500 | 56 | 0.0 | 0.0 | 0.00 | 0.00 | 0.00 | 40 | 1017.6 | |
| 20260503012000 | 58 | 0.0 | 0.0 | 0.00 | 0.00 | 0.00 | 39 | 1017.6 | |
| 20260503011501 | 58 | 0.0 | 0.0 | 0.00 | 0.00 | 0.00 | 39 | 1017.6 | |
| 20260503011000 | 57 | 0.0 | 0.0 | 0.00 | 0.00 | 0.00 | 40 | 1017.6 | |
| 20260503010500 | 56 | 0.0 | 0.0 | 0.00 | 0.00 | 0.00 | 41 | 1017.6 | |
| 20260503010000 | 55 | 0.0 | 0.0 | 0.00 | 0.00 | 0.00 | 44 | 1017.7 | |
| 20260503005500 | 56 | 0.0 | 0.0 | 0.00 | 0.00 | 0.00 | 44 | 1017.6 | |
| 20260503005000 | 56 | 0.0 | 0.0 | 0.00 | 0.00 | 0.00 | 41 | 1017.6 | |
| 20260503004500 | 57 | 0.0 | 0.0 | 0.00 | 0.00 | 0.00 | 40 | 1017.5 | |
| 20260503004000 | 57 | 0.0 | 0.0 | 0.00 | 0.00 | 0.00 | 41 | 1017.6 | |
| 20260503003500 | 58 | 0.0 | 0.0 | 0.00 | 0.00 | 0.00 | 40 | 1017.5 | |
| 20260503003000 | 57 | 0.0 | 0.0 | 0.00 | 0.00 | 0.00 | 42 | 1017.4 | |
| 20260503002500 | 56 | 0.0 | 0.0 | 0.00 | 0.00 | 0.00 | 42 | 1017.4 | |
| 20260503002000 | 56 | 0.0 | 0.0 | 0.00 | 0.00 | 0.00 | 42 | 1017.4 | |
| 20260503001500 | 57 | 0.0 | 0.0 | 0.00 | 0.00 | 0.00 | 42 | 1017.4 | |
| 20260503001000 | 57 | 0.0 | 0.0 | 0.00 | 0.00 | 0.00 | 41 | 1017.4 | |
| 20260503000500 | 57 | 0.0 | 0.0 | 0.00 | 0.00 | 0.00 | 41 | 1017.4 | |
| 20260503000000 | 57 | 0.0 | 0.0 | 0.00 | 0.00 | 0.00 | 40 | 1017.4 | |
| 20260502235500 | 57 | 0.0 | 0.0 | 0.00 | 0.00 | 0.00 | 40 | 1017.4 | |
| 20260502235000 | 57 | 0.0 | 0.0 | 0.00 | 0.00 | 0.00 | 39 | 1017.5 | |
| 20260502234500 | 57 | 0.0 | 0.0 | 0.00 | 0.00 | 0.00 | 38 | 1017.4 | |
| 20260502234000 | 57 | 0.0 | 0.0 | 0.00 | 0.00 | 0.00 | 39 | 1017.4 | |
| 20260502233500 | 57 | 0.0 | 0.0 | 0.00 | 0.00 | 0.00 | 39 | 1017.5 | |
| 20260502233000 | 56 | 0.0 | 0.0 | 0.00 | 0.00 | 0.00 | 39 | 1017.5 | |
| 20260502232501 | 56 | 0.0 | 0.0 | 0.00 | 0.00 | 0.00 | 39 | 1017.5 | |
| 20260502232000 | 57 | 0.0 | 0.0 | 0.00 | 0.00 | 0.00 | 38 | 1017.4 | |
| 20260502231500 | 57 | 0.0 | 0.0 | 0.00 | 0.00 | 0.00 | 38 | 1017.4 | |
| 20260502231000 | 59 | 0.0 | 0.0 | 0.00 | 0.00 | 0.00 | 38 | 1017.4 | |
| 20260502230500 | 59 | 0.0 | 0.0 | 0.00 | 0.00 | 0.00 | 38 | 1017.3 | |
| 20260502230000 | 59 | 0.0 | 0.0 | 0.00 | 0.00 | 0.00 | 38 | 1017.4 | |
| 20260502225500 | 60 | 0.0 | 0.0 | 0.00 | 0.00 | 0.00 | 37 | 1017.3 | |
| 20260502225000 | 60 | 0.0 | 0.0 | 0.00 | 0.00 | 0.00 | 36 | 1017.4 | |
| 20260502224500 | 60 | 0.0 | 0.0 | 0.00 | 0.00 | 0.00 | 36 | 1017.4 | |
| 20260502224000 | 60 | 0.0 | 0.0 | 0.00 | 0.00 | 0.00 | 36 | 1017.3 | |
| 20260502223500 | 60 | 0.0 | 0.0 | 0.00 | 0.00 | 0.00 | 36 | 1017.3 | |
| 20260502223000 | 59 | 0.0 | 0.0 | 0.00 | 0.00 | 0.00 | 37 | 1017.4 | |
| 20260502222500 | 59 | 0.0 | 0.0 | 0.00 | 0.00 | 0.00 | 37 | 1017.5 | |
| 20260502222000 | 59 | 0.0 | 0.0 | 0.00 | 0.00 | 0.00 | 38 | 1017.4 | |
| 20260502221500 | 59 | 0.0 | 0.0 | 0.00 | 0.00 | 0.00 | 37 | 1017.4 | |
| 20260502221000 | 59 | 0.0 | 0.0 | 0.00 | 0.00 | 0.00 | 37 | 1017.5 | |
| 20260502220500 | 61 | 0.0 | 0.0 | 0.00 | 0.00 | 0.00 | 35 | 1017.3 | |
| 20260502220000 | 60 | 0.0 | 0.0 | 0.00 | 0.00 | 0.00 | 36 | 1017.3 | |
| 20260502215500 | 61 | 0.0 | 0.0 | 0.00 | 0.00 | 0.00 | 35 | 1017.3 | |
| 20260502215000 | 61 | 0.0 | 0.0 | 0.00 | 0.00 | 0.00 | 36 | 1017.3 | |
| 20260502214501 | 61 | 0.0 | 0.0 | 0.00 | 0.00 | 0.00 | 35 | 1017.3 | |
| 20260502214000 | 61 | 0.0 | 0.0 | 0.00 | 0.00 | 0.00 | 36 | 1017.3 | |
| 20260502213500 | 61 | 0.0 | 0.0 | 0.00 | 0.00 | 0.00 | 35 | 1017.3 | |
| 20260502213000 | 61 | 0.0 | 0.0 | 0.00 | 0.00 | 0.00 | 35 | 1017.3 | |
| 20260502212500 | 61 | 0.0 | 0.0 | 0.00 | 0.00 | 0.00 | 36 | 1017.3 | |
| 20260502212000 | 61 | 0.0 | 0.0 | 0.00 | 0.00 | 0.00 | 35 | 1017.2 | |
| 20260502211501 | 62 | 0.0 | 0.0 | 0.00 | 0.00 | 0.00 | 35 | 1017.2 | |
| 20260502211000 | 62 | 0.0 | 0.0 | 0.00 | 0.00 | 0.00 | 35 | 1017.3 | |
| 20260502210500 | 62 | 0.0 | 0.0 | 0.00 | 0.00 | 0.00 | 35 | 1017.3 | |
| 20260502210000 | 62 | 0.0 | 0.0 | 0.00 | 0.00 | 0.00 | 34 | 1017.3 | |
| 20260502205500 | 63 | 0.0 | 0.0 | 0.00 | 0.00 | 0.00 | 34 | 1017.3 | |
| 20260502205000 | 63 | 0.0 | 0.0 | 0.00 | 0.00 | 0.00 | 33 | 1017.2 | |
| 20260502204500 | 63 | 0.0 | 0.0 | 0.00 | 0.00 | 0.00 | 33 | 1017.3 | |
| 20260502204000 | 64 | 0.0 | 0.0 | 0.00 | 0.00 | 0.00 | 32 | 1017.3 | |
| 20260502203500 | 64 | 0.0 | 0.0 | 0.00 | 0.00 | 0.00 | 32 | 1017.3 | |
| 20260502203000 | 64 | 0.0 | 0.0 | 0.00 | 0.00 | 0.00 | 32 | 1017.3 | |
| 20260502202500 | 64 | 0.0 | 0.0 | 0.00 | 0.00 | 0.00 | 31 | 1017.4 | |
| 20260502202000 | 65 | 0.0 | 0.0 | 0.00 | 0.00 | 0.00 | 30 | 1017.2 | |
| 20260502201500 | 65 | 0.0 | 0.0 | 0.00 | 0.00 | 0.00 | 30 | 1017.3 | |
| 20260502201000 | 65 | 0.0 | 0.0 | 0.00 | 0.00 | 0.00 | 30 | 1017.3 | |
| 20260502200500 | 65 | 0.0 | 0.0 | 0.00 | 0.00 | 0.00 | 29 | 1017.3 | |
| 20260502200000 | 66 | 0.0 | 0.0 | 0.00 | 0.00 | 0.00 | 28 | 1017.3 | |
| 20260502195500 | 66 | 0.0 | 0.0 | 0.00 | 0.00 | 0.00 | 29 | 1017.3 | |
| 20260502195000 | 67 | 0.0 | 0.0 | 0.00 | 0.00 | 0.00 | 27 | 1017.1 | |
| 20260502194500 | 67 | 0.0 | 0.0 | 0.00 | 0.00 | 0.00 | 27 | 1017.1 | |
| 20260502194000 | 67 | 0.0 | 0.0 | 0.00 | 0.00 | 0.00 | 27 | 1017.1 | |
| 20260502193500 | 67 | 0.0 | 0.0 | 0.00 | 0.00 | 0.00 | 26 | 1017.2 | |
| 20260502193000 | 68 | 0.0 | 0.0 | 0.00 | 0.00 | 0.00 | 25 | 1017.1 | |
| 20260502192500 | 69 | 0.0 | 0.0 | 0.00 | 0.00 | 0.00 | 24 | 1017.1 | |
| 20260502192000 | 69 | 0.0 | 0.0 | 0.00 | 0.00 | 0.00 | 24 | 1017.1 | |
| 20260502191500 | 69 | 0.0 | 0.0 | 0.00 | 0.00 | 0.00 | 24 | 1017.1 | |
| 20260502191000 | 69 | 0.0 | 0.0 | 0.00 | 0.00 | 0.00 | 23 | 1017.1 | |
| 20260502190500 | 69 | 0.0 | 0.0 | 0.00 | 0.00 | 0.00 | 23 | 1017.0 | |
| 20260502190000 | 70 | 0.0 | 0.0 | 0.00 | 0.00 | 0.00 | 22 | 1016.9 | |
| 20260502185500 | 70 | 0.0 | 0.0 | 0.00 | 0.00 | 0.00 | 22 | 1016.9 | |
| 20260502185000 | 70 | 0.0 | 0.0 | 0.00 | 0.00 | 0.00 | 22 | 1016.8 | |
| 20260502184500 | 70 | 0.0 | 0.0 | 0.00 | 0.00 | 0.00 | 22 | 1016.7 | |
| 20260502184000 | 70 | 0.0 | 0.0 | 0.00 | 0.00 | 0.00 | 22 | 1016.7 | |
| 20260502183500 | 70 | 0.0 | 0.0 | 0.00 | 0.00 | 0.00 | 22 | 1016.6 | |
| 20260502183000 | 71 | 0.0 | 0.0 | 0.00 | 0.00 | 0.00 | 22 | 1016.6 | |
| 20260502182500 | 71 | 0.0 | 0.0 | 0.00 | 0.00 | 0.00 | 22 | 1016.5 | |
| 20260502182000 | 73 | 0.0 | 0.0 | 0.00 | 0.00 | 0.00 | 20 | 1016.5 | |
| 20260502181500 | 73 | 0.0 | 0.0 | 0.00 | 0.00 | 0.00 | 19 | 1016.4 |